Overview Statistics Trail Chart Weather Telemetry Raw packets
 

This is the latest recevied weather packets stored in our database for station/object W1MDM-10. If no packets are shown the sender has not sent any weather packets the latest 10 day(s).

<< 1 2 3 4 5 >>
Time Temp. Humidity Pressure Rain* Wind** Luminosity Snow
1788375034 35.56° C 51% 1013 hPa 0 mm - - -
1788374734 36.11° C 51% 1013.1 hPa 0 mm - - -
1788374434 36.11° C 49% 1013.2 hPa 0 mm - - -
1788374134 36.11° C 53% 1013.2 hPa 0 mm - - -
1788373834 36.11° C 54% 1013.4 hPa 0 mm - - -
1788373534 35.56° C 55% 1013.5 hPa 0 mm - - -
1788373234 35.56° C 52% 1013.4 hPa 0 mm - - -
1788372934 36.11° C 54% 1013.6 hPa 0 mm - - -
1788372634 35.56° C 55% 1013.8 hPa 0 mm - - -
1788372334 35.56° C 55% 1013.8 hPa 0 mm - - -
1788372034 35.56° C 54% 1013.9 hPa 0 mm - - -
1788371734 35.56° C 54% 1014 hPa 0 mm - - -
1788371434 35° C 58% 1014.1 hPa 0 mm - - -
1788371134 35° C 60% 1014.1 hPa 0 mm - - -
1788370850 35° C 56% 1014.2 hPa 0 mm - - -
1788370534 34.44° C 57% 1014.3 hPa 0 mm - - -
1788370234 34.44° C 60% 1014.3 hPa 0 mm - - -
1788369934 34.44° C 60% 1014.4 hPa 0 mm - - -
1788369634 34.44° C 62% 1014.5 hPa 0 mm - - -
1788369334 34.44° C 61% 1014.6 hPa 0 mm - - -
1788369034 33.89° C 62% 1014.7 hPa 0 mm - - -
1788368734 33.89° C 62% 1014.8 hPa 0 mm - - -
1788368434 33.89° C 64% 1014.7 hPa 0 mm - - -
1788368134 33.33° C 64% 1014.9 hPa 0 mm - - -
1788367834 33.33° C 63% 1014.9 hPa 0 mm - - -

* Rain latest hour (hover to see other rain measurements)
** Current wind speed in m/s (hover to see current wind gust speed)